Regional Weather Roundup
Issued by NWS Grand Forks, ND

Home | Current Version | Previous Version | Graphics & Text | Print | Product List | Glossary On
Versions: 1 2 3 4 5 6 7 8 9 10 11 12 13 14 15 16 17 18 19 20 21 22 23 24 25 26 27 28 29 30 31 32 33 34 35 36 37 38 39 40 41 42 43 44 45 46 47 48 49 50
000
ASUS43 KFGF 252331
RWRFGF
PRAIRIE TO PINES  WEATHER ROUNDUP
NATIONAL WEATHER SERVICE EASTERN NORTH DAKOTA/GRAND FORKS ND
600 PM CDT MON MAY 25 2015

 **SATELLITE DATA USED TO AUGMENT SKY COVER AT AUTOMATED STATIONS**
 *****  WEATHER ACROSS EASTERN NORTH DAKOTA  *****

CITY           SKY/WX    TMP DP  RH WIND       PRES   REMARKS
GRAND FORKS    PTSUNNY   74  50  42 S12       29.77R
GRAND FRKS AFB PTSUNNY   74  50  42 S12       29.77R
GRAND FRKS NWS   N/A     68 N/A N/A S9          N/A
DEVILS LAKE    PTSUNNY   75  37  25 E9        29.77S
FARGO          CLOUDY    65  54  67 NE8       29.80R
WAHPETON ARPT  CLOUDY    63  50  63 NE13G18   29.80R
$$

 ***** WEATHER ACROSS CENTRAL AND WESTERN NORTH DAKOTA  *****

CITY           SKY/WX    TMP DP  RH WIND       PRES   REMARKS
BISMARCK       PTSUNNY   68  54  60 W12       29.84S
MINOT          PTSUNNY   74  44  34 N12       29.81R
JAMESTOWN      MOSUNNY   71  54  54 SW10      29.79S
MINOT AFB      SUNNY     76  45  32 SW6       29.79F
GARRISON         N/A     77  43  29 NE5       29.82S
WILLISTON      CLOUDY    71  45  39 W15       29.85R
DICKINSON      CLOUDY    66  47  50 SE7       29.88S
HETTINGER      CLOUDY    62  49  62 SE10      29.90F
$$

 *****  OTHER AIRPORT OBSERVATIONS IN OUR AREA  *****

CITY           SKY/WX    TMP DP  RH WIND       PRES   REMARKS
WALHALLA         N/A     79  39  24 SE7       29.73F
GRAFTON AIRPOR FAIR      77  46  33 E7G14     29.75S
VALLEY CITY AR FAIR      66  59  77 S10       29.82R
CANDO          FAIR      79  36  21 SW3       29.78S
CAVALIER APRT  FAIR      81  39  22 NE9       29.73F
GWINNER        NOT AVBL
SHEYENNE NWR     N/A     66  51  58 NE7       29.95S
ROLLA            N/A     81  36  19 NW10G18   29.79S
 ***** THE ABOVE OBSERVATIONS ARE NON NWS ARE NOT QUALITY
       CONTROLLED AND MAY MIS-REPORT RAIN FOR SNOW...
$$

  *****  WEATHER ACROSS NORTHERN MINNESOTA  *****

CITY           SKY/WX    TMP DP  RH WIND       PRES   REMARKS
FLAG ISLAND    CLOUDY    63  54  72 SE6       29.74S
WARROAD        CLOUDY    72  50  46 CALM      29.76S
ROSEAU         CLOUDY    73  52  46 S8        29.76R
HALLOCK        PTSUNNY   79  41  25 NE8       29.74S
THF RVR FALLS  CLOUDY    68  45  42 SE5       29.80R
BAUDETTE       CLOUDY    67  52  58 S10       29.76S
WASKISH        CLOUDY    61  54  77 CALM      29.80R
CROOKSTON      CLOUDY    72  50  46 SW7       29.80S
STEPHEN NDAWN    N/A     77  48  36 S10         N/A
GREENBUSH NDAW   N/A     72  52  49 S12         N/A
$$
  *****  WEATHER ACROSS CENTRAL AND WEST MINNESOTA  *****

CITY           SKY/WX    TMP DP  RH WIND       PRES   REMARKS
FOSSTON        DRIZZLE   61  54  77 CALM      29.81R
BEMIDJI        RAIN      57  54  89 N6        29.80S
PARK RAPIDS    RAIN      57  53  86 E12G21    29.78R FOG
ELBOW LAKE     CLOUDY    60  53  77 NE17G24   29.75R
WADENA         DRIZZLE   55  54  94 NE21G38   29.74S
DETROIT LAKES  DRIZZLE   59  54  82 NE13G18   29.81R
MOORHEAD       DRIZZLE   63  55  77 NE10      29.81S
FERGUS FALLS   PTSUNNY   61  52  72 NE13G23   29.77S
MORRIS MN      CLOUDY    63  55  77 N13       29.74S
STAPLES        DRIZZLE   55  54  94 N10       29.73R
$$
  *****  WEATHER ELSEWHERE ACROSS MINNESOTA  *****

CITY           SKY/WX    TMP DP  RH WIND       PRES   REMARKS
DULUTH         LGT RAIN  49  47  93 E7        29.73S VSB 1/4
INTRNTL FALLS  LGT RAIN  59  54  83 SE6       29.79S
ELY            DRIZZLE   55  52  88 NE6       29.76R
CLOQUET        DRIZZLE   52  48  87 E3        29.72S
WHEATON        CLOUDY    59  52  77 N9        29.80S
BRAINERD       CLOUDY    61  57  88 N6        29.70S FOG
HIBBING        LGT RAIN  56  52  86 NE8       29.74S
ALEXANDRIA     CLOUDY    59  55  87 N14       29.74R
SAINT CLOUD    PTSUNNY   68  57  68 SW14G23   29.70S
MINNEAPOLIS    PTSUNNY   72  58  61 SW15G22   29.73S
$$

  *****  WEATHER ACROSS SOUTH DAKOTA  *****

CITY           SKY/WX    TMP DP  RH WIND       PRES   REMARKS
SIOUX FALLS    LGT RAIN  65  60  84 CALM      29.76F
BROOKINGS      PTSUNNY   64  57  77 NW10      29.77F
WATERTOWN      CLOUDY    59  53  80 NE13      29.80R
HURON          CLOUDY    66  54  65 NE14G23   29.79F
SISSETON         N/A     65  53  65 NE18      29.78R
ABERDEEN       CLOUDY    67  51  56 NE15      29.83R
MITCHELL       CLOUDY    68  58  70 N10       29.78F
PIERRE         CLOUDY    61  52  72 NE10      29.83R
MOBRIDGE       CLOUDY    66  55  67 SE6       29.84R
RAPID CITY     CLOUDY    57  54  89 NW3       29.87S
$$

  *****  SOME WEATHER IN NEARBY STATES *****

CITY           SKY/WX    TMP DP  RH WIND       PRES   REMARKS
GLASGOW MT     PTSUNNY   74  43  32 SE25G32   29.83R
GREAT FALLS MT MOSUNNY   71  43  36 E10       29.83F
CHEYENNE WY    CLOUDY    57  38  48 N16       29.95R
SCOTTSBLUFF NE CLOUDY    56  52  86 SW5       29.89S
OMAHA NE       PTSUNNY   80  60  50 S16       29.73F
DES MOINES IA  PTSUNNY   80  63  55 S18       29.78F
DAVENPORT IA   SUNNY     78  59  51 SW21G30   29.89F
CHICAGO IL     PTSUNNY   77  60  55 SW14G24   29.91F
EAU CLAIRE WI  MOSUNNY   72  58  61 SW7       29.74R
LA CROSSE WI   PTSUNNY   72  63  73 SW8       29.77F
$$

  *****  SOME NATIONAL WEATHER *****

CITY           SKY/WX    TMP DP  RH WIND       PRES   REMARKS
LA GUARDIA NY  PTSUNNY   80  57  45 S13       30.15S
RALEIGH NC     MOSUNNY   81  53  37 S8        30.25F
ATLANTA GA     HVY RAIN  72  66  83 S6        30.20S FOG
NEW ORLEANS LA TSTM      75  71  87 W9        30.03S FOG
OKLAHOMA CITY  CLOUDY    66  54  65 SE20G30   29.75R
ALBUQUERQUE NM TSTM      57  48  72 SW18G32   29.99R
SALT LAKE CITY PTSUNNY   70  41  34 W10       29.93F
LOS ANGELES CA PTSUNNY   65  55  70 SW12      29.97F
BOISE ID       CLOUDY    68  48  48 S18G29    29.85R
SEATTLE WA     CLOUDY    60  49  66 S7        30.03S
$$

*** WEATHER ACROSS MANITOBA...SASKATCHEWAN AND ONTARIO ***
                ***ONTARIO***

CITY           SKY/WX    TMP DP  RH WIND       PRES   REMARKS
GERALDTON      CLOUDY    61  54  77 SE3       29.80S
THUNDER BAY    LGT RAIN  57  55  94 NE8       29.74R
SIOUX LOOKOUT  CLOUDY    75  41  29 SW6       29.73S
TORONTO        PTSUNNY   81  61  50 SW25G36   29.93F
BIG TROUT LK   SUNNY     68  37  32 SW5       29.77S
PICKLE LAKE    CLOUDY    73  30  20 SE7       29.75F
DRYDEN         PTSUNNY   75  37  25 NE5       29.73S
KENORA         CLOUDY    77  46  33 SW6       29.75S
$$
                *** MANITOBA***

CITY           SKY/WX    TMP DP  RH WIND       PRES   REMARKS
BRANDON        PTSUNNY   81  37  21 NW9       29.75S
DAUPHIN        SUNNY     81  39  22 E9        29.74S
ISLAND LAKE    MOSUNNY   77  37  24 NW5       29.72F
PILOT MOUND      N/A     79  36  21 N12G22      N/A
THE PAS        PTSUNNY  N/A N/A N/A MISG        N/A
THOMPSON       MOSUNNY   79  39  24 VRB2      29.63F
WINNIPEG       PTSUNNY   81  37  21 VRB3      29.72S
LYNN LAKE      CLOUDY    70  39  32 NE18G31   29.62S
CHURCHILL      CLOUDY    30  21  69 NE21      29.98R WCI  17
GILLAM         SUNNY     66  36  32 NE7       29.73F
$$
                ***SASKATCHEWAN***

CITY           SKY/WX    TMP DP  RH WIND       PRES   REMARKS
ESTEVAN        CLOUDY    79  36  21 SE6       29.82S
KINDERSLEY     PTSUNNY   79  32  18 VRB2      29.83S
LLOYDMINSTER   PTSUNNY   79  28  15 NW12      29.81F
PRINCE ALBERT  TSTM      75  39  27 NW12      29.78R
REGINA         MOSUNNY   79  37  22 SW10      29.82F
YORKTON        MOSUNNY   77  41  27 W5        29.78F
N. BATTLEFORD  SUNNY     77  36  22 SW7       29.83F
LA RONGE       MOSUNNY   82  37  20 W10       29.68F
SASKATOON      PTSUNNY   81  32  17 W10G17    29.80F
SWIFT CURRENT  PTSUNNY   73  36  25 NE7       29.85F
$$
NOTE: THESE ARE AUTOMATED STATIONS WITH LIMITED QUALITY CONTROL
      "FAIR" INDICATES FEW OR NO CLOUDS BELOW 12,000 FEET WITH NO
      SIGNIFICANT WEATHER AND/OR OBSTRUCTIONS TO VISIBILITY.
      SKY/WX - SKY CONDITION AND SIGNIFICANT WEATHER.
      TMP - AIR TEMPERATURE.    DP   - DEWPOINT TEMPERATURE.
      RH  - RELATIVE HUMIDITY.  PRES - PRESSURE.
      HX  - HEAT INDEX.         WCI  - WIND CHILL INDEX.
$


USA.gov is the U.S. government's official web portal to all federal, state and local government web resources and services.